Regional Weather Roundup
Issued by NWS Northern Indiana

Home | Current Version | Previous Version | Graphics & Text | Print | Product List | Glossary On
Versions: 1 2 3 4 5 6 7 8 9 10 11 12 13 14 15 16 17 18 19 20 21 22 23 24 25 26 27 28 29 30 31 32 33 34 35 36 37 38 39 40 41 42 43 44 45 46 47 48 49 50
000
ASUS43 KIWX 020110
RWRIWX

KIWX WEATHER ROUNDUP
NATIONAL WEATHER SERVICE NORTHERN INDIANA
900 PM EDT FRI AUG 01 2014

NOTE: "FAIR" INDICATES FEW OR NO CLOUDS BELOW 12,000 FEET WITH NO
SIGNIFICANT WEATHER AND/OR OBSTRUCTIONS TO VISIBILITY.

* THESE STATIONS ARE NOT UNDER NWS QUALITY CONTROL. THEY ALSO MAY NOT
  REPORT WEATHER SUCH AS PRECIPITATION OR FOG.

INZ001>027-020200-
NORTHERN INDIANA

CITY           SKY/WX    TMP DP  RH WIND       PRES   REMARKS
GARY*          MOCLDY    73  55  53 SW3       30.09R
VALPARAISO     CLOUDY    64  61  90 CALM      30.10R
MICHIGAN CITY* CLOUDY    64  59  82 CALM      30.10R
LAPORTE*       CLOUDY    64  59  82 NW6       30.11R
KNOX*          CLOUDY    66  61  84 NE3       30.09R
SOUTH BEND     MOCLDY    69  58  67 CALM      30.11R
GOSHEN         MOCLDY    69  63  81 N6        30.10R
MONTICELLO*    CLOUDY    67  62  84 NW3       30.07R
LOGANSPORT*    CLOUDY    64  61  88 S5        30.09R
ROCHESTER*     MOCLDY    72  59  64 N6        30.10R
WARSAW*        MOCLDY    68  61  77 N3        30.10R
ANGOLA*        PTCLDY    72  64  78 CALM      30.11R
FORT WAYNE     MOCLDY    71  59  65 CALM      30.09R
HUNTINGTON*    MOCLDY    69  60  75 CALM      30.09R
PERU/GRISSOM   CLOUDY    66  66 100 S2        30.09S
MARION*        CLOUDY    67  60  80 S6        30.11R

$$
INZ028>050-020200-
CENTRAL INDIANA

CITY           SKY/WX    TMP DP  RH WIND       PRES   REMARKS
LAFAYETTE      CLOUDY    65  63  93 W6        30.07F
KOKOMO*        CLOUDY    68  63  83 CALM      30.09R
MUNCIE*        MOCLDY    68  59  73 NW10      30.09R
INDIANAPOLIS   CLOUDY    68  61  78 SE6       30.07F

$$
MIZ043>046-050>051-056>058-064>065-071>073-077>080-020200-
SOUTHWEST LOWER MICHIGAN

CITY           SKY/WX    TMP DP  RH WIND       PRES   REMARKS
BATTLE CREEK   PTCLDY    71  58  63 NE6       30.12S
BENTON HARBOR  PTCLDY    66  60  81 CALM      30.10R
COLDWATER*     MOCLDY    72  63  73 CALM      30.11S
HILLSDALE*     MOCLDY    71  61  71 CALM      30.12S
HOLLAND        PTCLDY    70  60  70 CALM      30.10S
GRAND RAPIDS   PTCLDY    69  57  65 SW3       30.09F
KALAMAZOO      CLEAR     71  63  75 CALM      30.10S
STURGIS*       PTCLDY    68  63  83 CALM      30.11R
THREE RIVERS*  FAIR      70  63  76 CALM      30.11S

$$
OHZ001>008-015>018-024>025-020200-
NORTHWEST OHIO

CITY           SKY/WX    TMP DP  RH WIND       PRES   REMARKS
WAUSEON*       FAIR      68  66  94 CALM      30.10R FOG
DEFIANCE       MOCLDY    71  62  73 N3        30.09R
FINDLAY        MOCLDY    77  60  55 N15       30.08R
TOLEDO EXPRESS MOCLDY    68  65  90 CALM      30.08R FOG
TOLEDO METCALF PTCLDY    74  61  63 NE5       30.09S
LIMA           MOCLDY    74  64  71 CALM      30.08S

$$
&&


USA.gov is the U.S. government's official web portal to all federal, state and local government web resources and services.